Regional Weather Roundup
Issued by NWS Charleston, WV

Home | Current Version | Previous Version | Graphics & Text | Print | Product List | Glossary On
Versions: 1 2 3 4 5 6 7 8 9 10 11 12 13 14 15 16 17 18 19 20 21 22 23 24 25 26 27 28 29 30 31 32 33 34 35 36 37 38 39 40 41 42 43 44 45 46 47 48 49 50
000
ASUS41 KRLX 160910
RWRRLX
West Virginia Regional Weather Roundup
National Weather Service Charleston WV
400 AM EST MON JAN 16 2017

Note: "fair" indicates few or no clouds below 12,000 feet with no
significant weather and/or obstructions to visibility.

WVZ003-161000-
Northern Panhandle of West Virginia

CITY           SKY/WX    TMP DP  RH WIND       PRES   REMARKS
WHEELING       MOCLDY    28  21  75 E5        30.32F
$$

WVZ009-161000-
Northwest West Virginia

CITY           SKY/WX    TMP DP  RH WIND       PRES   REMARKS
PARKERSBURG    MOCLDY    34  31  88 CALM      30.35F FOG
$$

WVZ006-161000-
Western West Virginia

CITY           SKY/WX    TMP DP  RH WIND       PRES   REMARKS
HUNTINGTON     CLOUDY    39  37  92 NE6       30.30F FOG
$$

WVZ015-161000-
West Central West Virginia

CITY           SKY/WX    TMP DP  RH WIND       PRES   REMARKS
CHARLESTON     CLOUDY    40  39  97 CALM      30.29F FOG
$$

WVZ022-031-161000-
North Central West Virginia

CITY           SKY/WX    TMP DP  RH WIND       PRES   REMARKS
CLARKSBURG     CLOUDY    32  29  88 NE3       30.32S
MORGANTOWN     PTCLDY    30  26  85 CALM      30.32F
$$

WVZ025-035-042-045-161000-
Southern West Virginia

CITY           SKY/WX    TMP DP  RH WIND       PRES   REMARKS
BECKLEY        CLOUDY    46  45  96 S5        30.27S FOG
LOGAN          FOG       43  43 100 CALM      30.26F VSB<1/4
BLUEFIELD      CLOUDY    47  46  97 SW5       30.28S
LEWISBURG      LGT RAIN  43  42  99 N5        30.29F
$$

WVZ047-161000-
Northern Mountains of West Virginia

CITY           SKY/WX    TMP DP  RH WIND       PRES   REMARKS
ELKINS         CLOUDY    37  34  89 CALM      30.30F FOG
$$

WVZ052-161000-
Eastern Panhandle of West Virginia

CITY           SKY/WX    TMP DP  RH WIND       PRES   REMARKS
MARTINSBURG    CLOUDY    33  26  75 NE5       30.40S
PETERSBURG     CLOUDY    39  33  80 N3        30.38F
$$



USA.gov is the U.S. government's official web portal to all federal, state and local government web resources and services.